Torna al catalogo

HULIANWANG DIGUI-80

AttivoComunicazioniLEO
NORAD 65312·PAYLOAD·🇨🇳 China

Lanciato Aug 25, 2025 da Wenchang Space Launch Site

Loading…

Prossimi Passaggi (prossime 24 ore)

TLE

AggiornatoSource: Space-Track

Epoca: Sep 14, 2026, 12:49 UTC

1 65312U 25187H   26257.53427401 -.00000106  00000-0  39670-4 0  9995
2 65312  50.0016 245.4522 0000855 339.4685  20.6152 13.29325453 51583

Traccia HULIANWANG DIGUI-80 in tempo reale con AllMySat

Download on the App Store